Pagina principale
METAR-TAF:

METAR-TAF

Aeroporti :

Payerne, Svizzera

latitudine: 46-49N, longitudine: 006-57E, altezza: 490 m

Osservazione

Il bollettino è stato emesso 31 minuti fa, alle 20:50 UTC
Vento 1 kt da direzioni variabili
Temperature 10°C
Umidità 62%
Pressione 1015 hPa
Visibilità 10 km o più
Nuvoloso ad un'altezza di 11000 ft

METAR: LSMP 212050Z AUTO VRB01KT 9999NDV BKN110 10/03 Q1015 RMK

Ora: 22:21 (21:21 UTC)


TAF: mancante

Osservazioni e previsioni meteorologiche di più di 4000 aeroporti (messaggi METAR e TAF).

Le stazioni disponibili sono rappresentate dai dischi gialli e rossi sulla carta.

Puntare il mouse per vedere il nome della stazione.

Clicca sopra per visualizzare le osservazioni e previsioni meteorologiche.

Per cambiare la mappa : fare clic sui pulsanti verdi con una croce nera per ingrandire, il pulsante verde con un trattino per diminuire, o sulla freccia verde per le mappe adiacenti.


METAR-TAF: